EW3871 Weather Reports


time (UTC)temp
F
wind
direction
speed
knots
gust
knots
rain 1hr
in
rain 24hr
in
rain mn
in
humidity
%
barometer
mb
20220627201533 63 84 0.0 2.6 0.03 0.21 0.21 96 1018.6
20220627200030 63 59 2.6 5.2 0.04 0.21 0.21 96 1017.5
20220627194528 63 342 1.7 5.2 0.02 0.20 0.20 96 1017.6
20220627193032 63 337 2.6 7.0 0.05 0.19 0.19 96 1017.3
20220627191526 63 314 1.7 5.2 0.09 0.18 0.18 96 1017.7
20220627190025 63 186 1.7 8.7 0.11 0.17 0.17 95 1017.3
20220627184525 63 98 3.5 5.2 0.11 0.17 0.17 94 1017.0
20220627183023 64 164 0.0 2.6 0.08 0.14 0.14 93 1017.4
20220627181520 64 283 1.7 4.3 0.03 0.09 0.09 92 1017.4
20220627180017 64 285 4.3 7.0 0.01 0.06 0.06 92 1017.2
20220627174516 64 274 2.6 5.2 0.02 0.06 0.06 91 1017.1
20220627173014 64 290 2.6 6.1 0.02 0.06 0.06 90 1016.5
20220627171525 65 281 4.3 7.0 0.01 0.06 0.06 90 1016.4
20220627170012 65 274 2.6 7.0 0.00 0.05 0.05 90 1016.2
20220627164524 65 123 0.0 6.1 0.02 0.05 0.05 91 1016.1
20220627163011 65 248 0.9 8.7 0.02 0.05 0.05 91 1016.2
20220627161512 65 263 2.6 7.8 0.02 0.05 0.05 89 1015.9
20220627160012 65 228 3.5 8.7 0.05 0.05 0.05 90 1015.9
20220627154509 65 279 7.0 12.2 0.02 0.02 0.02 91 1015.9
20220627153006 64 292 5.2 13.0 0.02 0.02 0.02 94 1015.6
20220627151511 65 276 4.3 10.4 0.02 0.02 0.02 92 1015.5
20220627150005 72 271 10.4 16.5 0.00 0.00 0.00 66 1015.4
20220627144509 74 212 2.6 7.0 0.00 0.00 0.00 62 1015.6
20220627143003 74 281 2.6 6.1 0.00 0.00 0.00 62 1015.2
20220627141502 74 278 2.6 6.1 0.00 0.00 0.00 61 1015.6
20220627140002 74 275 1.7 7.8 0.00 0.00 0.00 63 1015.3
20220627134501 74 299 2.6 10.4 0.00 0.00 0.00 61 1015.3
20220627133102 75 295 1.7 7.0 0.00 0.00 0.00 61 1015.6
20220627131558 73 243 0.9 5.2 0.00 0.00 0.00 63 1015.5
20220627130100 73 298 3.5 7.8 0.00 0.00 0.00 62 1015.5
20220627124554 72 289 3.5 8.7 0.00 0.00 0.00 63 1015.5
20220627123053 72 312 4.3 6.1 0.00 0.00 0.00 63 1015.1
20220627121553 71 283 1.7 7.0 0.00 0.00 0.00 62 1015.4
20220627120103 71 258 2.6 4.3 0.00 0.00 0.00 64 1015.6
20220627114552 71 297 0.0 4.3 0.00 0.00 0.00 63 1015.8
20220627113051 71 307 0.9 4.3 0.00 0.00 0.00 62 1015.6
20220627111552 71 238 0.0 6.1 0.00 0.00 0.00 63 1016.0
20220627110051 70 308 3.5 6.1 0.00 0.00 0.00 64 1016.0
20220627104551 71 211 2.6 6.1 0.00 0.00 0.00 63 1016.5
20220627103051 71 238 0.9 5.2 0.00 0.00 0.00 63 1016.4
20220627101553 71 308 0.9 6.1 0.00 0.00 0.00 63 1016.0
20220627100044 70 336 0.9 6.1 0.00 0.00 0.00 65 1015.6
20220627094543 69 274 4.3 6.1 0.00 0.00 0.00 65 1015.7
20220627093049 68 300 3.5 7.0 0.00 0.00 0.00 66 1015.9
20220627091643 68 278 1.7 7.8 0.00 0.00 0.00 67 1016.0
20220627090040 67 288 4.3 7.0 0.00 0.00 0.00 68 1016.1
20220627084542 66 268 4.3 7.0 0.00 0.00 0.00 69 1016.1
20220627083039 65 262 2.6 7.8 0.00 0.00 0.00 70 1016.1
20220627081537 65 281 2.6 9.6 0.00 0.00 0.00 70 1016.0
20220627080033 65 240 2.6 6.1 0.00 0.00 0.00 70 1015.6
20220627074529 64 269 2.6 7.8 0.00 0.00 0.00 69 1015.2
20220627073028 64 243 2.6 5.2 0.00 0.00 0.00 69 1015.0
20220627071527 64 254 3.5 8.7 0.00 0.00 0.00 70 1014.9
20220627070026 64 264 3.5 7.8 0.00 0.00 0.00 69 1014.9
20220627064525 64 274 4.3 8.7 0.00 0.00 0.00 69 1014.7
20220627063022 64 264 3.5 8.7 0.00 0.00 0.00 69 1014.3
20220627061519 64 231 3.5 7.0 0.00 0.00 0.00 70 1014.0
20220627060025 64 250 3.5 7.8 0.00 0.00 0.00 70 1013.6
20220627054514 64 276 2.6 6.1 0.00 0.00 0.00 71 1013.5
20220627053010 0 0.0 0.0 0.00 0.00 0.00 1013.3
20220627051507 0 0.0 0.0 0.00 0.00 0.00 1013.2
20220627050005 0 0.0 0.0 0.00 0.00 0.00 1012.9
20220627044558 0 0.0 0.0 0.00 0.00 0.00 1012.8
20220627043053 0 0.0 0.0 0.00 0.00 0.00 1012.7
20220627041550 64 274 4.3 9.6 0.00 0.00 0.00 69 1012.7
20220627040048 64 261 3.5 9.6 0.00 0.00 0.00 70 1012.4
20220627034544 64 271 5.2 9.6 0.00 0.00 0.00 70 1012.3
20220627033046 64 288 2.6 6.1 0.00 0.00 0.00 71 1012.3
20220627031541 64 258 2.6 7.8 0.00 0.00 0.00 70 1012.2
20220627030038 64 269 2.6 7.8 0.00 0.00 0.00 70 1012.1
20220627024540 65 236 4.3 9.6 0.00 0.00 0.00 69 1011.9
20220627023033 65 264 5.2 11.3 0.00 0.00 0.00 68 1011.8
20220627021530 66 230 3.5 8.7 0.00 0.00 0.00 69 1011.8
20220627020029 66 278 3.5 8.7 0.00 0.00 0.00 70 1011.5
20220627014531 66 243 1.7 4.3 0.00 0.00 0.00 73 1011.5
20220627013023 66 259 2.6 7.8 0.00 0.00 0.00 73 1011.4
20220627011520 67 275 4.3 8.7 0.00 0.00 0.00 76 1011.2
20220627010017 68 252 0.9 2.6 0.00 0.00 0.00 86 1010.9
20220627004515 67 231 0.9 2.6 0.00 0.00 0.00 87 1010.8
20220627003014 67 273 0.9 3.5 0.00 0.00 0.00 86 1010.9
20220627001510 68 277 0.9 2.6 0.00 0.00 0.00 84 1010.8
20220627000009 69 95 0.9 2.6 0.00 0.00 0.00 83 1010.7
20220626234507 69 81 0.9 2.6 0.00 0.00 0.00 83 1010.7
20220626233005 70 92 0.9 1.7 0.00 0.00 0.00 83 1010.8
20220626231504 70 70 0.0 0.0 0.00 0.00 0.00 82 1010.8
20220626230001 70 347 0.0 0.0 0.00 0.00 0.00 80 1010.7
20220626224606 71 337 0.0 0.9 0.00 0.00 0.00 79 1010.7
20220626223102 70 284 0.0 0.0 0.00 0.00 0.00 79 1010.5
20220626221557 70 284 0.0 4.3 0.00 0.00 0.00 78 1010.4
20220626220055 71 95 0.0 1.7 0.00 0.00 0.00 76 1010.1
20220626214552 72 97 0.9 3.5 0.00 0.00 0.00 74 1010.0
20220626213057 72 103 2.6 4.3 0.00 0.00 0.00 73 1009.6
20220626211612 73 94 0.9 2.6 0.00 0.00 0.00 73 1009.4
20220626210052 74 79 1.7 2.6 0.00 0.00 0.00 69 1009.3
20220626204548 75 82 0.9 2.6 0.00 0.00 0.00 67 1009.1
20220626203047 76 113 1.7 3.5 0.00 0.00 0.00 66 1008.8